McGuire AFB, NJ

8:27 AM EDT on May 26, 2017 (GMT -0400)
McGuire Air Force Base

Weather History for KWRI - February, 2013

Change the Weather History Date:

Wednesday, February 27, 2013

  Actual Average Record
Temperature  
Mean Temperature 47 °F -  
Max Temperature 53 °F 45 °F 73 °F (1997)
Min Temperature 41 °F 27 °F 10 °F (2014)
Degree Days  
Heating Degree Days 18    
Moisture  
Dew Point 44 °F    
Average Humidity 93    
Maximum Humidity 100    
Minimum Humidity 60    
Precipitation  
Precipitation 0.29 in - - ()
Sea Level Pressure  
Sea Level Pressure 29.59 in    
Wind  
Wind Speed 15 mph (NE)    
Max Wind Speed 24 mph    
Max Gust Speed 30 mph    
Visibility 6 miles    
Events Rain    
Averages and records for this station are not official NWS values.
T = Trace of Precipitation, MM = Missing Value Source: NWS Daily Summary

Daily Weather History Graph

Daily Weather History Graph

Search for Another Location

Airport or City:

Trip Planner

Search our weather history database for the weather conditions in past years. The results will help you decide how hot, cold, wet, or windy it might be!

Date:

Astronomy

Feb. 27, 2013 Rise Set
Actual Time 6:34 AM EST 5:48 PM EST
Civil Twilight 6:07 AM EST 6:15 PM EST
Nautical Twilight 5:35 AM EST 6:46 PM EST
Astronomical Twilight 5:04 AM EST 7:18 PM EST
Moon 8:06 PM EST (2/27) 7:08 AM EST (2/27)
Length of Visible Light 12h 08m
Length of Day
11h 13m
Waning Gibbous, 96% of the Moon is Illuminated
Feb 27
Waning Gibbous
Mar 4
Last Quarter
Mar 11
New
Mar 19
First Quarter
Mar 27
Full

Hourly Weather History & Observations

Time (EST) Temp. Windchill Dew Point Humidity Pressure Visibility Wind Dir Wind Speed Gust Speed Precip Events Conditions
12:00 AM 41.0 °F 32.5 °F 39.2 °F 93% 29.79 in 4.0 mi ENE 17.3 mph 23.0 mph N/A   Overcast
12:22 AM 41.0 °F 32.2 °F 39.2 °F 93% 29.77 in 5.0 mi ENE 18.4 mph 26.5 mph N/A Rain Light Rain
12:40 AM 41.0 °F 34.3 °F 41.0 °F 100% 29.77 in 6.0 mi ENE 11.5 mph 26.5 mph N/A Rain Light Rain
12:50 AM 41.0 °F 31.6 °F 41.0 °F 100% 29.76 in 5.0 mi ENE 20.7 mph 27.6 mph N/A Rain Light Rain
12:53 AM 41.0 °F 31.9 °F 41.0 °F 100% 29.75 in 4.0 mi ENE 19.6 mph 27.6 mph N/A Rain Light Rain
12:55 AM 41.5 °F 32.9 °F 40.5 °F 96% 29.75 in 4.0 mi ENE 18.4 mph 27.6 mph 0.08 in Rain Light Rain
1:13 AM 41.0 °F 30.9 °F 41.0 °F 100% 29.72 in 3.0 mi ENE 24.2 mph 29.9 mph N/A   Overcast
1:16 AM 42.8 °F 33.8 °F 41.0 °F 93% 29.72 in 4.0 mi ENE 21.9 mph 29.9 mph N/A   Overcast
1:24 AM 42.8 °F 34.5 °F 41.0 °F 93% 29.71 in 4.0 mi ENE 18.4 mph - N/A Rain Light Rain
1:41 AM 42.8 °F 34.3 °F 41.0 °F 93% 29.70 in 5.0 mi ENE 19.6 mph 25.3 mph N/A Rain Light Rain
1:42 AM 42.8 °F 34.3 °F 41.0 °F 93% 29.70 in 5.0 mi ENE 19.6 mph 25.3 mph N/A Rain Light Rain
1:46 AM 42.8 °F 33.8 °F 41.0 °F 93% 29.69 in 5.0 mi ENE 21.9 mph 26.5 mph N/A Rain Light Rain
1:55 AM 42.6 °F 33.5 °F 42.1 °F 98% 29.68 in 4.0 mi ENE 21.9 mph 26.5 mph 0.06 in Rain Light Rain
2:09 AM 42.8 °F 34.5 °F 42.8 °F 100% 29.67 in 3.0 mi ENE 18.4 mph 24.2 mph N/A Rain Light Rain
2:12 AM 42.8 °F 34.0 °F 42.8 °F 100% 29.67 in 3.0 mi ENE 20.7 mph 24.2 mph N/A Rain Light Rain
2:48 AM 42.8 °F 35.8 °F 42.8 °F 100% 29.65 in 2.5 mi ENE 13.8 mph 26.5 mph N/A Rain Light Rain
2:50 AM 42.8 °F 35.4 °F 42.8 °F 100% 29.64 in 2.5 mi ENE 15.0 mph 26.5 mph N/A Rain Light Rain
2:54 AM 42.8 °F 35.1 °F 42.8 °F 100% 29.64 in 3.0 mi ENE 16.1 mph 26.5 mph N/A Rain Light Rain
2:55 AM 43.2 °F 35.3 °F 43.0 °F 99% 29.64 in 3.0 mi ENE 17.3 mph 26.5 mph 0.07 in Rain Light Rain
3:00 AM 42.8 °F 34.5 °F 42.8 °F 100% 29.63 in 4.0 mi NE 18.4 mph - N/A Rain Light Rain
3:08 AM 42.8 °F 35.4 °F 42.8 °F 100% 29.63 in 5.0 mi NE 15.0 mph 24.2 mph N/A Rain Light Rain
3:10 AM 42.8 °F 35.4 °F 42.8 °F 100% 29.62 in 5.0 mi ENE 15.0 mph 24.2 mph N/A   Overcast
3:11 AM 42.8 °F 35.4 °F 42.8 °F 100% 29.62 in 5.0 mi ENE 15.0 mph 24.2 mph N/A   Overcast
3:28 AM 42.8 °F 35.8 °F 42.8 °F 100% 29.61 in 6.0 mi ENE 13.8 mph 23.0 mph N/A Rain Light Rain
3:36 AM 42.8 °F 34.3 °F 42.8 °F 100% 29.61 in 4.0 mi ENE 19.6 mph - N/A Rain Light Rain
3:38 AM 42.8 °F 35.4 °F 42.8 °F 100% 29.61 in 4.0 mi NE 15.0 mph 23.0 mph N/A Rain Light Rain
3:55 AM 43.3 °F 36.1 °F 43.0 °F 99% 29.60 in 5.0 mi NE 15.0 mph - 0.04 in Rain Light Rain
4:08 AM 42.8 °F 35.4 °F 42.8 °F 100% 29.60 in 4.0 mi NE 15.0 mph - N/A Rain Light Rain
4:27 AM 44.6 °F 37.8 °F 42.8 °F 93% 29.59 in 5.0 mi NE 15.0 mph - N/A Rain Light Rain
4:35 AM 44.6 °F 37.4 °F 42.8 °F 93% 29.58 in 6.0 mi NE 16.1 mph - N/A   Overcast
4:42 AM 44.6 °F 37.4 °F 42.8 °F 93% 29.57 in 6.0 mi NE 16.1 mph - N/A   Overcast
4:52 AM 44.6 °F 37.4 °F 44.6 °F 100% 29.57 in 6.0 mi NE 16.1 mph - N/A   Overcast
4:55 AM 44.1 °F 36.8 °F 43.9 °F 99% 29.57 in 6.0 mi NE 16.1 mph - 0.03 in   Overcast
4:58 AM 44.6 °F 37.8 °F 44.6 °F 100% 29.57 in 6.0 mi NE 15.0 mph - N/A   Overcast
5:02 AM 44.6 °F 38.1 °F 44.6 °F 100% 29.57 in 6.0 mi NE 13.8 mph - N/A   Overcast
5:06 AM 44.6 °F 37.8 °F 44.6 °F 100% 29.56 in 6.0 mi NE 15.0 mph - N/A   Overcast
5:12 AM 44.6 °F 37.2 °F 44.6 °F 100% 29.56 in 5.0 mi NE 17.3 mph - N/A   Overcast
5:13 AM 44.6 °F 37.4 °F 44.6 °F 100% 29.55 in 5.0 mi NE 16.1 mph - N/A   Overcast
5:20 AM 44.6 °F 37.8 °F 44.6 °F 100% 29.56 in 6.0 mi NE 15.0 mph - N/A   Overcast
5:33 AM 44.6 °F 37.8 °F 44.6 °F 100% 29.55 in 6.0 mi NE 15.0 mph - N/A   Overcast
5:52 AM 44.6 °F 37.8 °F 44.6 °F 100% 29.53 in 6.0 mi NE 15.0 mph - N/A   Overcast
5:55 AM 44.8 °F 37.7 °F 44.4 °F 99% 29.54 in 6.0 mi NE 16.1 mph - 0.01 in   Overcast
6:32 AM 44.6 °F 37.8 °F 44.6 °F 100% 29.52 in 8.0 mi NE 15.0 mph - N/A   Overcast
6:48 AM 44.6 °F 37.4 °F 44.6 °F 100% 29.51 in 4.0 mi NE 16.1 mph - N/A Rain Light Rain
6:50 AM 44.6 °F 37.4 °F 44.6 °F 100% 29.51 in 4.0 mi NE 16.1 mph - N/A   Overcast
6:55 AM 45.1 °F 38.8 °F 45.0 °F 99% 29.51 in 4.0 mi NE 13.8 mph - 0.00 in   Overcast
7:23 AM 46.4 °F 40.1 °F 44.6 °F 93% 29.50 in 2.5 mi NE 15.0 mph - N/A   Overcast
7:41 AM 46.4 °F 40.4 °F 46.4 °F 100% 29.49 in 3.0 mi ENE 13.8 mph - N/A   Overcast
7:55 AM 46.4 °F 40.7 °F 46.2 °F 99% 29.49 in 3.0 mi NE 12.7 mph - N/A   Overcast
8:11 AM 46.4 °F 41.9 °F 46.4 °F 100% 29.49 in 2.5 mi ENE 9.2 mph - N/A   Overcast
8:32 AM 48.2 °F - 46.4 °F 93% 29.50 in 1.8 mi ENE 9.2 mph - N/A   Overcast
8:35 AM 48.2 °F - 46.4 °F 93% 29.49 in 1.5 mi ENE 10.4 mph - N/A   Overcast
8:42 AM 48.2 °F - 48.2 °F 100% 29.49 in 1.5 mi ENE 9.2 mph - N/A   Overcast
8:43 AM 48.2 °F - 48.2 °F 100% 29.49 in 1.2 mi ENE 9.2 mph - N/A   Overcast
8:55 AM 48.0 °F - 47.7 °F 99% 29.50 in 1.2 mi East 9.2 mph - N/A   Overcast
9:04 AM 48.2 °F - 48.2 °F 100% 29.51 in 1.5 mi Variable 4.6 mph - N/A   Overcast
9:19 AM 48.2 °F - 48.2 °F 100% 29.50 in 1.8 mi East 3.5 mph - N/A   Overcast
9:25 AM 48.2 °F - 48.2 °F 100% 29.51 in 2.0 mi Calm Calm - N/A   Overcast
9:41 AM 50.0 °F - 48.2 °F 94% 29.51 in 3.0 mi Calm Calm - N/A   Overcast
9:55 AM 50.0 °F - 49.6 °F 99% 29.50 in 7.0 mi East 3.5 mph - N/A   Overcast
10:12 AM 50.0 °F - 50.0 °F 100% 29.49 in 5.0 mi SE 3.5 mph - N/A   Overcast
10:55 AM 51.8 °F - 51.4 °F 99% 29.50 in 10.0 mi WSW 11.5 mph - N/A   Overcast
11:03 AM 51.8 °F - 51.8 °F 100% 29.51 in 10.0 mi WSW 12.7 mph - N/A   Overcast
11:17 AM 51.8 °F - 50.0 °F 94% 29.51 in 10.0 mi WSW 17.3 mph - N/A   Overcast
11:26 AM 50.0 °F - 50.0 °F 100% 29.51 in 10.0 mi WSW 19.6 mph - N/A   Overcast
11:39 AM 50.0 °F - 50.0 °F 100% 29.51 in 10.0 mi WSW 15.0 mph 24.2 mph N/A   Overcast
11:55 AM 50.5 °F - 49.5 °F 96% 29.51 in 10.0 mi WSW 16.1 mph - N/A   Overcast
12:26 PM 50.0 °F - 46.4 °F 87% 29.51 in 10.0 mi West 16.1 mph - N/A   Overcast
12:38 PM 50.0 °F - 46.4 °F 87% 29.52 in 10.0 mi West 16.1 mph 23.0 mph N/A   Overcast
12:55 PM 49.5 °F - 45.5 °F 86% 29.52 in 10.0 mi West 15.0 mph 25.3 mph N/A   Overcast
1:20 PM 50.0 °F - 44.6 °F 82% 29.52 in 10.0 mi WNW 13.8 mph 23.0 mph N/A   Overcast
1:21 PM 50.0 °F - 44.6 °F 82% 29.52 in 10.0 mi WNW 16.1 mph 23.0 mph N/A   Overcast
1:27 PM 51.8 °F - 44.6 °F 76% 29.52 in 10.0 mi WNW 17.3 mph 24.2 mph N/A   Mostly Cloudy
1:31 PM 51.8 °F - 42.8 °F 71% 29.53 in 10.0 mi West 18.4 mph 24.2 mph N/A   Mostly Cloudy
1:55 PM 52.3 °F - 41.4 °F 66% 29.53 in 10.0 mi WNW 16.1 mph 25.3 mph N/A   Mostly Cloudy
2:52 PM 53.6 °F - 41.0 °F 62% 29.55 in 10.0 mi WNW 16.1 mph 23.0 mph N/A   Scattered Clouds
2:55 PM 52.5 °F - 40.3 °F 63% 29.56 in 10.0 mi WNW 15.0 mph 23.0 mph N/A   Scattered Clouds
3:55 PM 50.2 °F - 36.9 °F 60% 29.58 in 10.0 mi West 19.6 mph 27.6 mph N/A   Overcast
4:55 PM 48.9 °F - 37.4 °F 64% 29.61 in 10.0 mi WNW 9.2 mph - N/A   Overcast
5:55 PM 48.0 °F - 37.0 °F 66% 29.62 in 10.0 mi West 5.8 mph - N/A   Overcast
6:55 PM 45.3 °F 44.0 °F 36.5 °F 71% 29.63 in 10.0 mi NNW 3.5 mph - N/A   Scattered Clouds
7:55 PM 41.4 °F - 38.1 °F 88% 29.65 in 10.0 mi Calm Calm - N/A   Overcast
8:55 PM 42.3 °F - 39.0 °F 88% 29.66 in 10.0 mi Calm Calm - N/A   Overcast
9:55 PM 44.1 °F - 38.1 °F 80% 29.66 in 10.0 mi Calm Calm - N/A   Overcast
10:55 PM 43.5 °F - 37.4 °F 79% 29.65 in 10.0 mi Calm Calm - N/A   Overcast
11:55 PM 41.9 °F - 37.6 °F 85% 29.62 in 10.0 mi Calm Calm - N/A   Overcast